Regional Weather Roundup
Issued by NWS Upton, NY

Current Version | Previous Version | Text Only | Print | Product List | Glossary On
Versions: 1 2 3 4 5 6 7 8 9 10 11 12 13 14 15 16 17 18 19 20 21 22 23 24 25 26 27 28 29 30 31 32 33 34 35 36 37 38 39 40 41 42 43 44 45 46 47 48 49 50
000 ASUS41 KOKX 301308 RWROKX REGIONAL WEATHER ROUNDUP NATIONAL WEATHER SERVICE NEW YORK NY 900 AM EDT THU JUL 30 2015 NOTE: "FAIR" INDICATES FEW OR NO CLOUDS BELOW 12,000 FEET WITH NO SIGNIFICANT WEATHER AND/OR OBSTRUCTIONS TO VISIBILITY. NYZ071-072-176-178-NJZ106-104-301400- NEW YORK CITY METRO AREA CITY SKY/WX TMP DP RH WIND PRES REMARKS CENTRAL PARK CLOUDY 80 71 74 VRB3 29.94S LAGUARDIA APRT CLOUDY 81 71 71 SW8G17 29.90F KENNEDY INTL RAIN 79 72 78 SW12 29.92F NEWARK/LIBERTY CLOUDY 78 73 84 SW7 29.91S BRNX BOT. GARD N/A 81 72 74 E2 29.92R TETERBORO LGT RAIN 79 72 79 S8 29.89F $$ NYZ177-179-078>081-301400- LONG ISLAND NEW YORK CITY SKY/WX TMP DP RH WIND PRES REMARKS FARMINGDALE MOSUNNY 81 72 74 SW10 29.92F ISLIP PTSUNNY 79 72 79 SW12 29.91S SHIRLEY PTSUNNY 81 73 76 SW9 29.93S WESTHAMPTON PTSUNNY 80 74 81 SW14G21 29.94S MONTAUK POINT N/A 80 73 79 SW9 29.94S $$ NYZ052-065-067-301400- HUDSON VALLEY CITY SKY/WX TMP DP RH WIND PRES REMARKS WHITE PLAINS PTSUNNY 78 73 84 S3 29.91F NEWBURGH CLOUDY 79 73 83 SW12 29.91F MONTGOMERY PTSUNNY 80 74 81 SW6 29.89F POUGHKEEPSIE CLOUDY 81 72 74 VRB5 29.87F ALBANY PTSUNNY 79 69 71 S8 29.85F $$ NJZ001-105-106-008-010-013-015-019>022-104-301400- NEW JERSEY CITY SKY/WX TMP DP RH WIND PRES REMARKS NEWARK/LIBERTY CLOUDY 78 73 84 SW7 29.91S TETERBORO LGT RAIN 79 72 79 S8 29.89F CALDWELL CLOUDY 79 72 79 VRB5 29.91S MORRISTOWN CLOUDY 81 75 83 SW9 29.91F HAZE SOMERVILLE CLOUDY 79 73 82 MISG 29.89F SUSSEX CLOUDY 78 73 84 SW7 29.90F ANDOVER N/A 77 74 90 VRB3 29.91F TRENTON LGT RAIN 78 74 87 SW8 29.91F MILLVILLE PTSUNNY 81 74 79 SW8 29.94S ATLANTIC CITY MOSUNNY 82 73 74 SW13 29.95R WRIGHTSTOWN MOSUNNY 82 75 80 SW13 29.90F TOMS RIVER N/A 81 73 78 SW13G21 29.93S BELMAR MOSUNNY 79 70 73 SW7 29.92F $$ PAZ047>061-062-071-301400- EASTERN PENNSYLVANIA CITY SKY/WX TMP DP RH WIND PRES REMARKS PHILADELPHIA PTSUNNY 82 73 74 SW10 29.92S ALLENTOWN CLOUDY 80 73 79 SW7 29.90F SCRANTON CLOUDY 79 72 79 SW9 29.90S $$ CTZ002-004>006-009-010-012-RIZ004-006-007-MAZ004-011-015-301400- SOUTHERN NEW ENGLAND IN CT CITY SKY/WX TMP DP RH WIND PRES REMARKS BRADLEY INTL PTSUNNY 82 72 71 S9 29.88F HARTFORD CLOUDY 80 74 81 S7 29.88F DANBURY CLOUDY 78 71 79 SW8 29.92F WTRBRY/OXFORD CLOUDY 77 70 78 SW3 29.94F HAZE BRIDGEPORT MOSUNNY 80 73 79 SW9 29.90F MERIDEN CLOUDY 81 72 74 S8 29.90F NEW HAVEN PTSUNNY 78 73 84 SW8 29.91F CHESTER CLOUDY 77 73 88 S8 29.93F GROTON MOSUNNY 79 73 82 W7 29.91F WILLIMANTIC PTSUNNY 80 72 76 S6 29.91S IN RI CITY SKY/WX TMP DP RH WIND PRES REMARKS PROVIDENCE PTSUNNY 82 74 76 SW10 29.91S BLOCK ISLAND N/A 75 73 94 SW15G24 29.94F WESTERLY MOSUNNY 79 73 82 SW7 29.93S IN MA CITY SKY/WX TMP DP RH WIND PRES REMARKS BOSTON MOSUNNY 84 69 60 SW10 29.87S WORCESTER SUNNY 77 69 76 W10 29.92F WESTFIELD MOSUNNY 78 71 79 S6 29.88F PROVINCETOWN SUNNY 77 68 73 SW10 29.89F NANTUCKET MOSUNNY 74 71 91 SW13 29.93S $$ ANZ330-335-338-340-345-350-353-355-301400- COASTAL MARINE OBSERVATIONS STATION/POSITION TIME SKY/WX TEMP WIND PRES VSBY WAVE AIR SEA DIR/SP/G HT/PER (UTC) (F) (DEG/KT/KT) (MB) (MI) (FT/S) NY HARB ENTRANCE 1250 77 76 210/ 14/ 16 1012.5 3/ 9 4S FIRE IS NOT AVBL 20S FIRE ISLAND 1250 76 74 210/ 12/ 14 1013.3 3/ 5 GREAT SOUTH BAY NOT AVBL 23SW MTP 1250 76 74 230/ 12/ 14 1013.4 4/ 9 HUDSON CANYON NOT AVBL KINGS POINT 1200 77 N/A EXECUTION ROCKS 1200 76 180/ 6/ 6 N/A CENTRAL LI SOUND NOT AVBL EASTERN LI SOUND 1200 76 71 230/ 2/ 4 N/A ROBBINS REEF 1200 77 N/A $$ >>>>>>>>>>>>>>>>>>>>>>>>>>>> KEY <<<<<<<<<<<<<<<<<<<<<<<<<<< > < > SKY/WX - SKY CONDITION/PRESENT WEATHER < > TMP - TEMPERATURE IN FAHRENHEIT < > DP - DEWPOINT IN FAHRENHEIT < > RH - RELATIVE HUMIDITY IN PERCENT < > WIND - DIRECTION AND SPEED IN MPH < > PRES - MEAN SEA LEVEL PRESSURE IN INCHES OF HG < > WCI - WIND CHILL INDEX < > VSB - VISIBILITY IN MILES < > HX - HEAT INDEX < > TC - TEMPERATURE IN CELSIUS < > VRB - VARIABLE WIND DIRECTION < > < >>>>>>>>>>>>>>>>>>>>>>>>>>>> KEY <<<<<<<<<<<<<<<<<<<<<<<<<<<

USA.gov is the U.S. government's official web portal to all federal, state and local government web resources and services.